Location: *
(49.4547°N, 7.9131°E)
Time: 07:14:41
(UTC+00:00)

FREGAT/IRIS - Pass Details

Date: 22 September 2019
Orbit: 346 x 351 km, 97.0° (Epoch: 23 October)

Event Time Altitude Azimuth Distance (km) Brightness Sun altitude
Exits shadow 18:57:30 - 182° (S) 1,442 5.3 -15.2°
Reaches altitude 10° 18:57:47 10° 183° (S) 1,324 5.1 -15.3°
Maximum altitude 19:00:32 49° 260° (W) 469 3.3 -15.7°
Drops below altitude 10° 19:03:19 10° 337° (NNW) 1,341 5.9 -16.1°
Sets 19:05:18 0° 343° (NNW) 2,193 6.9 -16.4°
